Regional Weather Roundup
Issued by NWS Green Bay, WI

Home | Current Version | Previous Version | Graphics & Text | Print | Product List | Glossary Off
Versions: 1 2 3 4 5 6 7 8 9 10 11 12 13 14 15 16 17 18 19 20 21 22 23 24 25 26 27 28 29 30 31 32 33 34 35 36 37 38 39 40 41 42 43 44 45 46 47 48 49 50

000
ASUS43 KGRB 041010
RWRGRB

NORTH-CENTRAL AND NORTHEAST WISCONSIN REGIONAL WEATHER ROUNDUP
NATIONAL WEATHER SERVICE GREEN BAY WI
500 AM CDT MON MAY 04 2015

WIZ005-009-010>012-018-019-041100-
NORTH CENTRAL WISCONSIN

CITY           SKY/WX    TMP DP  RH WIND       PRES   REMARKS
IRONWOOD       CLEAR     46  34  61 NW3       29.99R
MANITOWISH WTR PTCLDY    48  36  62 N6        29.98S
ARBOR VITAE    CLEAR     52  41  65 N10       29.98R
EAGLE RIVER    PTCLDY    50  40  69 N8        29.96R
LAND O LAKES   PTCLDY    49  39  67 N7        29.97R
RHINELANDER    CLEAR     50  44  80 N3        29.97R
PHILLIPS       CLEAR     47  40  76 NW7       29.99R
ANTIGO         FOG       48  48 100 CALM      29.96R VSB 1
TOMAHAWK       PTCLDY    45  44  96 NW6       29.98R
MERRILL        PTCLDY    50  47  89 NW3       29.96R
$$

WIZ013-073-041100-
NORTHEAST WISCONSIN

CITY           SKY/WX    TMP DP  RH WIND       PRES   REMARKS
IRON MOUNTAIN  CLOUDY    52  44  74 NW9       29.91R
MARINETTE      CLOUDY    57  54  88 NW3       29.90R
OCONTO         CLOUDY    58  58 100 NW6       29.91R
$$

WIZ017-030-035>037-045-041100-
CENTRAL WISCONSIN

CITY           SKY/WX    TMP DP  RH WIND       PRES   REMARKS
MEDFORD        CLEAR     49  45  85 N8        29.98R
WAUSAU         MOCLDY    53  50  89 NW3       29.95R
MOSINEE        MOCLDY    52  52 100 CALM      29.97R
MARSHFIELD     PTCLDY    53  52  96 N6        29.97R
WISC RAPIDS    FOG       52  51  97 NW3       29.97R VSB 1/4
STEVENS POINT  MOCLDY    53  53  99 NW5       29.97R FOG
WAUPACA        CLOUDY    58  57  97 NW5       29.94R
SHAWANO        CLOUDY    57  56  94 NW6       29.93R
CLINTONVILLE   CLOUDY    55  55 100 NW6       29.93R
$$

WIZ038-039-048-051-041100-
FOX VALLEY

CITY           SKY/WX    TMP DP  RH WIND       PRES   REMARKS
NWS GREEN BAY  CLOUDY    58  56  93 NW8       29.91R
APPLETON       CLOUDY    55  55 100 NW9       29.93R
OSHKOSH        CLOUDY    57  55  93 W7        29.92R
FOND DU LAC    CLOUDY    58  55  90 W8        29.92R
$$

WIZ022-050-052-041100-
EAST CENTRAL WISCONSIN

CITY           SKY/WX    TMP DP  RH WIND       PRES   REMARKS
STURGEON BAY   CLOUDY    57  54  88 SW3       29.93R
MANITOWOC      CLOUDY    57  56  96 N5        29.89R
SHEBOYGAN      CLOUDY    58  57  97 S3        29.90R
$$

LMZ563-521-522-541>543-041100-
LAKESHORE

STATION/POSITION TIME  TEMP    WIND        PRES    VSBY  WAVE
                       AIR SEA DIR/SP/G                  HT/PER
                 (UTC) (F)     (DEG/KT/KT) (MB)    (MI)  (FT/S)
SHEBOYGAN LKSHOR 1000   55     310/ 13/ 15 1012.8R
KEWAUNEE LKSHORE 1000   56     100/  2/  3 1011.0F
NORTHPORT PIER   1000   51     300/  5/  7 1012.5R
CHAMBERS ISLAND  1000   54     270/  1/  6 1012.9S
MENOMINEE LKSHOR 1000   58     300/  8/ 10 1013.1S
$$


USA.gov is the U.S. government's official web portal to all federal, state and local government web resources and services.